Weather History for PASD - November, 2012

Change the Weather History Date:

Wednesday, November 7, 2012

  Actual Average Record
Temperature  
Mean Temperature 38 °F -  
Max Temperature 46 °F 40 °F 49 °F (1993)
Min Temperature 30 °F 34 °F 26 °F (2008)
Degree Days  
Heating Degree Days 27    
Moisture  
Dew Point 34 °F    
Average Humidity 87    
Maximum Humidity 100    
Minimum Humidity 60    
Precipitation  
Precipitation 0.00 in - - ()
Sea Level Pressure  
Sea Level Pressure 30.16 in    
Wind  
Wind Speed 4 mph (East)    
Max Wind Speed 15 mph    
Max Gust Speed 21 mph    
Visibility 7 miles    
Events      
Averages and records for this station are not official NWS values.
T = Trace of Precipitation, MM = Missing Value Source: NWS Daily Summary

Daily Weather History Graph

Daily Weather History Graph

Search for Another Location

Airport or City:

Trip Planner

Search our weather history database for the weather conditions in past years. The results will help you decide how hot, cold, wet, or windy it might be!

Date:

Astronomy

Nov. 07, 2012 Rise Set
Actual Time 9:00 AM AKST 5:50 PM AKST
Civil Twilight 8:20 AM AKST 6:30 PM AKST
Nautical Twilight 7:36 AM AKST 7:14 PM AKST
Astronomical Twilight 6:54 AM AKST 7:56 PM AKST
Moon 12:59 AM AKST (11/7) 3:06 PM AKST (11/7)
Length of Visible Light 10h 09m
Length of Day
8h 49m
Last Quarter, 41% of the Moon is Illuminated
Nov 7
Last Quarter
Nov 13
New
Nov 20
First Quarter
Nov 28
Full
Dec 6
Last Quarter

Hourly Weather History & Observations

Time (AKST) Temp. Windchill Dew Point Humidity Pressure Visibility Wind Dir Wind Speed Gust Speed Precip Events Conditions
12:16 AM 33.8 °F 29.6 °F 21.2 °F 60% 30.31 in 10.0 mi NNE 4.6 mph - N/A   Clear
12:36 AM 32.0 °F 28.7 °F 21.2 °F 64% 30.31 in 10.0 mi NE 3.5 mph - N/A   Clear
12:56 AM 32.0 °F - 19.4 °F 60% 30.31 in 10.0 mi Calm Calm - N/A   Clear
1:16 AM 32.0 °F 28.7 °F 21.2 °F 64% 30.32 in 10.0 mi North 3.5 mph - N/A   Clear
1:36 AM 32.0 °F - 21.2 °F 64% 30.34 in 10.0 mi Calm Calm - N/A   Clear
1:56 AM 30.2 °F - 21.2 °F 69% 30.34 in 10.0 mi Calm Calm - N/A   Clear
2:16 AM 30.2 °F - 24.8 °F 80% 30.33 in 10.0 mi Calm Calm - N/A   Clear
2:36 AM 30.2 °F 25.4 °F 24.8 °F 80% 30.32 in 10.0 mi NW 4.6 mph - N/A   Clear
2:56 AM 30.2 °F - 24.8 °F 80% 30.32 in 10.0 mi Calm Calm - N/A   Clear
3:36 AM 30.2 °F - 24.8 °F 80% 30.33 in 10.0 mi Calm Calm - N/A   Clear
3:56 AM 30.2 °F - 26.6 °F 86% 30.33 in 10.0 mi Calm Calm - N/A   Clear
4:16 AM 30.2 °F - 26.6 °F 86% 30.33 in 10.0 mi Calm Calm - N/A   Clear
4:36 AM 30.2 °F - 26.6 °F 86% 30.33 in 10.0 mi Calm Calm - N/A   Clear
4:56 AM 30.2 °F - 26.6 °F 86% 30.32 in 10.0 mi Calm Calm - N/A   Clear
5:16 AM 30.2 °F 26.7 °F 24.8 °F 80% 30.31 in 10.0 mi ENE 3.5 mph - N/A   Clear
5:36 AM 32.0 °F 28.7 °F 24.8 °F 75% 30.30 in 10.0 mi ENE 3.5 mph - N/A   Clear
5:56 AM 32.0 °F 27.5 °F 24.8 °F 75% 30.30 in 10.0 mi East 4.6 mph - N/A   Clear
6:16 AM 30.2 °F - 24.8 °F 80% 30.30 in 10.0 mi Calm Calm - N/A   Clear
6:36 AM 30.2 °F 24.3 °F 26.6 °F 86% 30.30 in 10.0 mi East 5.8 mph - N/A   Clear
6:56 AM 32.0 °F 26.4 °F 24.8 °F 75% 30.29 in 10.0 mi ENE 5.8 mph - N/A   Scattered Clouds
7:16 AM 33.8 °F 29.6 °F 24.8 °F 70% 30.28 in 10.0 mi East 4.6 mph - N/A   Scattered Clouds
7:36 AM 33.8 °F 29.6 °F 24.8 °F 70% 30.29 in 10.0 mi East 4.6 mph - N/A   Scattered Clouds
7:56 AM 33.8 °F 29.6 °F 24.8 °F 70% 30.29 in 10.0 mi ENE 4.6 mph - N/A   Scattered Clouds
8:16 AM 33.8 °F 30.8 °F 26.6 °F 75% 30.28 in 10.0 mi ENE 3.5 mph - N/A   Scattered Clouds
8:36 AM 33.8 °F 29.6 °F 28.4 °F 81% 30.29 in 10.0 mi NE 4.6 mph - N/A   Scattered Clouds
8:56 AM 35.6 °F - 28.4 °F 75% 30.28 in 10.0 mi Calm Calm - N/A   Mostly Cloudy
9:16 AM 35.6 °F - 28.4 °F 75% 30.29 in 10.0 mi Calm Calm - N/A   Mostly Cloudy
9:36 AM 35.6 °F - 28.4 °F 75% 30.29 in 10.0 mi Calm Calm - N/A   Mostly Cloudy
9:56 AM 35.6 °F 32.8 °F 30.2 °F 81% 30.28 in 10.0 mi NE 3.5 mph - N/A   Overcast
10:16 AM 37.4 °F - 30.2 °F 75% 30.28 in 10.0 mi Calm Calm - N/A   Overcast
10:36 AM 37.4 °F 33.8 °F 32.0 °F 81% 30.27 in 10.0 mi SE 4.6 mph - N/A   Overcast
10:56 AM 37.4 °F - 32.0 °F 81% 30.27 in 10.0 mi Calm Calm - N/A   Overcast
11:16 AM 37.4 °F - 32.0 °F 81% 30.26 in 10.0 mi Calm Calm - N/A   Overcast
11:36 AM 37.4 °F 34.9 °F 32.0 °F 81% 30.25 in 9.0 mi SE 3.5 mph - N/A   Overcast
11:56 AM 37.4 °F 33.8 °F 32.0 °F 81% 30.24 in 8.0 mi SSE 4.6 mph - N/A   Overcast
12:16 PM 37.4 °F 34.9 °F 33.8 °F 87% 30.23 in 4.0 mi NE 3.5 mph - N/A   Overcast
12:36 PM 35.6 °F 32.8 °F 33.8 °F 93% 30.22 in 4.0 mi NE 3.5 mph - N/A   Overcast
12:56 PM 35.6 °F 31.7 °F 33.8 °F 93% 30.20 in 8.0 mi NE 4.6 mph - N/A   Overcast
1:16 PM 37.4 °F 32.8 °F 33.8 °F 87% 30.19 in 8.0 mi NE 5.8 mph - N/A   Overcast
1:36 PM 37.4 °F - 35.6 °F 93% 30.18 in 9.0 mi Calm Calm - N/A   Overcast
1:56 PM 37.4 °F - 35.6 °F 93% 30.18 in 8.0 mi Calm Calm - N/A   Overcast
2:16 PM 37.4 °F 34.9 °F 35.6 °F 93% 30.16 in 7.0 mi NE 3.5 mph - N/A   Overcast
2:36 PM 37.4 °F - 35.6 °F 93% 30.15 in 7.0 mi Calm Calm - N/A   Overcast
2:56 PM 37.4 °F - 37.4 °F 100% 30.14 in 7.0 mi Calm Calm - N/A   Overcast
3:16 PM 39.2 °F 34.2 °F 37.4 °F 93% 30.12 in 7.0 mi East 6.9 mph - N/A   Overcast
3:36 PM 39.2 °F 37.0 °F 37.4 °F 93% 30.11 in 7.0 mi NE 3.5 mph - N/A   Overcast
3:56 PM 39.2 °F - 37.4 °F 93% 30.09 in 5.0 mi Calm Calm - N/A   Overcast
4:16 PM 39.2 °F 37.0 °F 37.4 °F 93% 30.08 in 5.0 mi ENE 3.5 mph - N/A   Overcast
4:36 PM 39.2 °F 37.0 °F 39.2 °F 100% 30.06 in 4.0 mi NE 3.5 mph - N/A   Overcast
4:56 PM 39.2 °F 35.0 °F 39.2 °F 100% 30.05 in 4.0 mi ENE 5.8 mph - N/A   Overcast
5:16 PM 41.0 °F 39.0 °F 39.2 °F 93% 30.03 in 4.0 mi NE 3.5 mph - N/A   Overcast
5:36 PM 42.8 °F 39.3 °F 41.0 °F 93% 30.02 in 5.0 mi ENE 5.8 mph - N/A   Overcast
5:56 PM 42.8 °F 40.1 °F 41.0 °F 93% 30.00 in 5.0 mi ENE 4.6 mph - N/A   Overcast
6:16 PM 42.8 °F 41.1 °F 42.8 °F 100% 30.00 in 6.0 mi NE 3.5 mph - N/A   Overcast
6:36 PM 44.6 °F - 42.8 °F 93% 29.99 in 6.0 mi Calm Calm - N/A   Overcast
6:56 PM 44.6 °F - 44.6 °F 100% 29.98 in 5.0 mi Calm Calm - N/A   Overcast
7:16 PM 46.4 °F 42.4 °F 46.4 °F 100% 29.97 in 4.0 mi SE 8.1 mph - N/A   Overcast
7:36 PM 46.4 °F 41.5 °F 46.4 °F 100% 29.96 in 4.0 mi SSE 10.4 mph 19.6 mph N/A   Overcast
7:56 PM 46.4 °F 40.4 °F 46.4 °F 100% 29.95 in 2.5 mi SSE 13.8 mph 20.7 mph N/A   Overcast
8:16 PM 46.4 °F 40.4 °F 46.4 °F 100% 29.94 in 2.5 mi SE 13.8 mph 19.6 mph N/A   Overcast
8:36 PM 46.4 °F 40.1 °F 46.4 °F 100% 29.93 in 2.5 mi SSE 15.0 mph 18.4 mph N/A   Overcast
8:56 PM 46.4 °F 40.4 °F 46.4 °F 100% 29.93 in 3.0 mi SSE 13.8 mph - N/A   Overcast
9:16 PM 44.6 °F 38.1 °F 44.6 °F 100% 29.92 in 4.0 mi SSE 13.8 mph - N/A   Overcast
9:36 PM 44.6 °F 38.8 °F 44.6 °F 100% 29.91 in 3.0 mi SSE 11.5 mph - N/A   Overcast
9:56 PM 44.6 °F 38.4 °F 44.6 °F 100% 29.91 in 4.0 mi SE 12.7 mph 16.1 mph N/A   Overcast
10:16 PM 44.6 °F 38.8 °F 44.6 °F 100% 29.91 in 3.0 mi SSE 11.5 mph - N/A   Overcast
10:36 PM 44.6 °F 38.1 °F 44.6 °F 100% 29.91 in 3.0 mi SE 13.8 mph - N/A   Overcast
10:56 PM 44.6 °F 38.8 °F 44.6 °F 100% 29.91 in 4.0 mi SE 11.5 mph - N/A   Overcast
11:16 PM 44.6 °F 38.4 °F 44.6 °F 100% 29.91 in 5.0 mi SE 12.7 mph - N/A   Overcast
11:36 PM 44.6 °F 39.7 °F 44.6 °F 100% 29.90 in 5.0 mi SE 9.2 mph - N/A   Overcast
11:56 PM 46.4 °F 42.9 °F 46.4 °F 100% 29.90 in 5.0 mi SE 6.9 mph - N/A   Overcast